Regional Weather Roundup
Issued by NWS

Home | Current Version | Previous Version | Graphics & Text | Print | Product List | Glossary On
Versions: 1 2 3 4 5 6 7 8 9 10 11 12 13 14 15 16 17 18 19 20 21 22 23 24 25 26 27 28 29 30 31 32 33 34 35 36 37 38 39 40 41 42 43 44 45 46 47 48 49 50
000
ASUS45 KSLC 200610
RWRUT

UTAH REGIONAL WEATHER ROUNDUP
NATIONAL WEATHER SERVICE SALT LAKE CITY UT
1200 AM MDT THU JUL 20 2017

UTZ001>011-023>025-200700-

NORTHERN UTAH

CITY           SKY/WX    TMP DP  RH WIND       PRES   REMARKS
BRIGHAM CITY   MOCLDY    78  51  38 W10       30.05F
HILL AFB       NOT AVBL
LOGAN          MOCLDY    74  55  51 CALM      30.06R
OGDEN          PTCLDY    76  53  44 S6        30.05F
SALT LAKE CITY MOCLDY    80  57  45 S13       30.04S
TOOELE VALLEY  MOCLDY    79  55  44 S15G23    30.04S
WENDOVER       PTCLDY    82  56  40 NE7       30.01F
HEBER CITY     CLOUDY    68  54  60 CALM      30.20S
WEST JORDAN    MOCLDY    75  62  64 S16       30.08F

$$

UTZ011>015-024>027-200700-

CENTRAL/NORTHEAST UTAH

CITY           SKY/WX    TMP DP  RH WIND       PRES   REMARKS
PROVO AIRPORT  CLOUDY    70  61  73 S8        30.12S
MOAB/CANYONLAN CLOUDY    76  60  57 NE16      30.09F
DELTA          MOCLDY    77  52  41 SE3       30.12F
PRICE          CLOUDY    75  52  44 NE15      30.22S
ROOSEVELT      CLOUDY    64  59  82 SW7       30.28F
VERNAL         CLOUDY    67  61  81 W9        30.24R

$$

UTZ013>016-019>022-027-200700-

SOUTHERN UTAH

CITY           SKY/WX    TMP DP  RH WIND       PRES   REMARKS
BRYCE CANYON   PTCLDY    57  55  93 SW5       30.39S
CEDAR CITY     MOCLDY    71  59  65 SW3       30.21S
MILFORD        PTCLDY    76  57  51 S15       30.15S
ST GEORGE      CLOUDY    83  64  52 SW8       30.03F
HANKSVILLE     MOCLDY    75  52  43 N6        30.11S
BLANDING       PTCLDY    71  51  48 N8        30.26S

$$

REGIONAL REPORTS     COLORADO/ARIZONA

CITY           SKY/WX    TMP DP  RH WIND       PRES   REMARKS
CRAIG, CO      CLOUDY    64  54  69 NW3       30.35S
GRAND JUNCTION CLOUDY    75  58  55 NE21      30.19F
RIFLE, CO      CLOUDY    68  59  73 W5        30.29R
MONTROSE, CO   CLEAR     71  57  61 N12       30.26R
CORTEZ, CO     CLOUDY    76  50  40 SE17G25   30.24R THUNDER
COLORADO CITY    N/A     72  64  78 CALM      30.21F
PAGE, AZ       CLEAR     80  55  42 W3        30.12S
GRAND CANYON   MOCLDY    59  57  93 CALM      30.33R
KINGMAN, AZ    CLOUDY    75  70  84 S7        30.09S
FLAGSTAFF, AZ  MOCLDY    57  54  89 CALM      30.36R

$$

REGIONAL REPORTS    NEVADA/IDAHO/WYOMING

CITY           SKY/WX    TMP DP  RH WIND       PRES   REMARKS
LAS VEGAS, NV  MOCLDY    86  63  45 N5        29.97F
ELY, NY        PTCLDY    71  53  52 S7        30.21R
ELKO, NV       PTCLDY    73  21  14 CALM      30.08S
POCATELLO, ID  CLEAR     72  39  30 SW7       30.04S
BURLEY, ID     PTCLDY    65  53  65 CALM      30.00R
FORT BRIDGER,    N/A     64  50  59 SE12      30.31S
EVANSTON, WY   CLOUDY    67  49  52 W5        30.29S
ROCK SPRINGS,  CLOUDY    67  47  48 S16       30.30R
KEMMERER, WY     N/A     66  43  42 S3        30.31F

$$



USA.gov is the U.S. government's official web portal to all federal, state and local government web resources and services.